contact:dominique.lefevre@mio.osupytheas.fr, maurice.libes@osupytheas.fr, didier.mallarino@osupytheas.fr
Project:EMSO http://www.emso-fr.org/EMSO-France
Depth: 2436.0 m
Title:EMSO Ligure Ouest : Data MII capteur AQUADOPP
Date,Latitude,Longitude,X_East,Y_North,Z_Up,Amplitude_X,Amplitude_Y,Amplitude_Z,Batterie,SoundSpeed,Heading,Pitch,Roll,Pressure,TIS,Speed,Direction
, degrees North, degrees East, m.s-1, m.s-1,m.s-1, 1, 1, 1, Volt, m.s-1, degree, degree, degree, dbar, degree_C, m.s-1, degree
2019-07-17T12:04:04,42.805,6.029,-0.013,0.022,0.006,106.0,111.0,101.0,13.4,1505.1,326.9,-0.8,1.8,2470.568,13.27,0.025,329.4
2019-07-17T12:07:05,42.805,6.029,-0.007,0.021,0.0,107.0,110.0,101.0,13.4,1505.2,327.8,-0.7,1.8,2470.453,13.29,0.022,341.6
2019-07-17T12:10:06,42.805,6.029,-0.061,0.036,-0.01,105.0,112.0,100.0,13.4,1505.2,327.0,-0.8,1.8,2470.333,13.3,0.07,300.5
2019-07-17T12:13:07,42.805,6.029,-0.03,0.024,0.02,103.0,111.0,100.0,13.4,1505.3,325.9,-0.7,1.8,2470.294,13.31,0.038,308.7
2019-07-17T12:16:08,42.805,6.029,-0.011,0.041,-0.021,104.0,112.0,101.0,13.4,1505.3,328.1,-0.7,1.8,2470.175,13.32,0.042,345.0
2019-07-17T12:19:09,42.805,6.029,-0.02,-0.008,-0.01,104.0,110.0,102.0,13.4,1505.3,326.0,-0.7,1.8,2470.083,13.32,0.021,248.2
2019-07-17T12:22:10,42.805,6.029,-0.039,0.019,-0.023,102.0,113.0,101.0,13.4,1505.3,325.3,-0.7,1.8,2470.052,13.32,0.043,296.0
2019-07-17T12:25:11,42.805,6.029,-0.001,0.017,0.009,107.0,111.0,100.0,13.3,1505.3,326.4,-0.8,1.8,2469.971,13.33,0.017,356.6
2019-07-17T12:28:12,42.805,6.029,0.0,0.025,-0.02,104.0,113.0,100.0,13.4,1505.3,326.1,-0.7,1.8,2470.004,13.33,0.025,0.0
2019-07-17T12:31:13,42.805,6.029,0.005,0.024,-0.013,105.0,111.0,99.0,13.4,1505.3,325.6,-0.7,1.9,2469.936,13.33,0.024,11.8
2019-07-17T12:34:14,42.805,6.029,-0.004,0.003,-0.02,104.0,111.0,101.0,13.4,1505.3,324.2,-0.7,1.8,2469.874,13.33,0.005,306.9
2019-07-17T12:37:15,42.805,6.029,-0.04,-0.004,-0.036,112.0,109.0,101.0,13.4,1505.3,326.3,-0.7,1.8,2469.812,13.33,0.04,264.3
2019-07-17T12:40:16,42.805,6.029,-0.016,0.007,0.0,104.0,111.0,103.0,13.4,1505.3,325.0,-0.8,1.8,2469.867,13.33,0.017,293.6
2019-07-17T12:43:17,42.805,6.029,-0.019,0.014,-0.012,105.0,109.0,102.0,13.4,1505.3,324.3,-0.7,1.8,2469.814,13.33,0.023,306.4
2019-07-17T12:46:18,42.805,6.029,-0.027,0.019,-0.022,104.0,109.0,100.0,13.4,1505.3,326.7,-0.8,1.8,2469.806,13.33,0.033,305.1
2019-07-17T12:49:19,42.805,6.029,-0.024,0.017,-0.014,103.0,110.0,101.0,13.4,1505.3,326.9,-0.7,1.8,2469.837,13.33,0.029,305.3
2019-07-17T12:52:20,42.805,6.029,-0.03,0.01,-0.028,104.0,110.0,100.0,13.4,1505.3,325.2,-0.7,1.8,2469.855,13.33,0.031,288.4
2019-07-17T12:55:21,42.805,6.029,-0.04,0.008,-0.026,103.0,109.0,102.0,13.3,1505.3,325.6,-0.7,1.8,2469.82,13.33,0.04,281.3
2019-07-17T12:58:22,42.805,6.029,-0.045,0.019,-0.022,105.0,109.0,100.0,13.3,1505.3,325.1,-0.7,1.8,2469.831,13.33,0.048,292.9
2019-07-17T13:01:23,42.805,6.029,-0.026,-0.011,-0.036,107.0,109.0,100.0,13.3,1505.3,325.2,-0.7,1.8,2469.821,13.33,0.028,247.1
2019-07-17T13:04:24,42.805,6.029,-0.015,0.009,0.0,105.0,108.0,101.0,13.4,1505.4,326.5,-0.7,1.9,2469.835,13.34,0.017,301.0
2019-07-17T13:07:25,42.805,6.029,-0.015,0.011,-0.014,104.0,108.0,100.0,13.4,1505.4,323.5,-0.7,1.8,2469.806,13.34,0.018,306.3
2019-07-17T13:10:26,42.805,6.029,-0.019,0.006,-0.001,107.0,108.0,102.0,13.4,1505.4,325.4,-0.7,1.8,2469.789,13.34,0.019,287.5
2019-07-17T13:13:27,42.805,6.029,-0.026,0.014,-0.021,105.0,109.0,100.0,13.3,1505.4,327.8,-0.7,1.8,2469.855,13.34,0.029,298.3
2019-07-17T13:16:28,42.805,6.029,-0.006,0.017,0.01,105.0,109.0,100.0,13.4,1505.4,323.8,-0.7,1.8,2469.796,13.34,0.018,340.6
2019-07-17T13:19:29,42.805,6.029,-0.002,0.007,-0.009,104.0,110.0,100.0,13.4,1505.3,326.6,-0.8,1.8,2469.843,13.33,0.007,344.1
2019-07-17T13:22:30,42.805,6.029,-0.03,0.024,-0.014,104.0,109.0,99.0,13.4,1505.3,326.3,-0.7,1.8,2469.825,13.33,0.038,308.7
2019-07-17T13:25:31,42.805,6.029,-0.018,0.032,0.023,104.0,108.0,99.0,13.4,1505.3,322.7,-0.7,1.9,2469.826,13.33,0.036,330.6
2019-07-17T13:28:32,42.805,6.029,0.012,0.007,0.0,105.0,110.0,101.0,13.3,1505.4,326.0,-0.7,1.8,2469.804,13.34,0.013,59.7
2019-07-17T13:31:33,42.805,6.029,-0.01,0.017,-0.022,101.0,110.0,101.0,13.4,1505.3,326.5,-0.7,1.8,2469.876,13.33,0.019,329.5
2019-07-17T13:34:34,42.805,6.029,-0.031,0.029,0.015,104.0,109.0,100.0,13.3,1505.4,323.3,-0.7,1.8,2469.801,13.34,0.042,313.1
2019-07-17T13:37:35,42.805,6.029,-0.007,0.017,-0.02,105.0,108.0,101.0,13.3,1505.4,325.9,-0.7,1.8,2469.857,13.34,0.018,337.6
2019-07-17T13:40:36,42.805,6.029,-0.029,0.006,0.002,105.0,108.0,101.0,13.3,1505.4,325.2,-0.7,1.8,2469.804,13.34,0.029,281.7
2019-07-17T13:43:37,42.805,6.029,-0.039,0.006,-0.019,104.0,110.0,100.0,13.4,1505.4,323.9,-0.7,1.8,2469.884,13.34,0.039,278.7
2019-07-17T13:46:38,42.805,6.029,-0.019,0.004,-0.018,104.0,109.0,103.0,13.4,1505.4,325.8,-0.7,1.9,2469.804,13.34,0.019,281.9
2019-07-17T13:49:39,42.805,6.029,-0.02,0.018,-0.01,106.0,110.0,101.0,13.4,1505.4,326.9,-0.7,1.8,2469.854,13.34,0.026,312.0
2019-07-17T13:52:40,42.805,6.029,-0.032,0.028,0.0,105.0,110.0,100.0,13.3,1505.4,326.5,-0.7,1.8,2469.825,13.34,0.042,311.2
2019-07-17T13:55:41,42.805,6.029,-0.021,0.011,0.012,130.0,109.0,102.0,13.4,1505.4,326.2,-0.7,1.9,2469.866,13.34,0.023,297.6
2019-07-17T13:58:42,42.805,6.029,-0.015,0.007,0.0,104.0,109.0,100.0,13.4,1505.4,328.0,-0.7,1.8,2469.823,13.34,0.016,295.0
2019-07-17T14:01:43,42.805,6.029,-0.053,-0.025,-0.008,106.0,111.0,101.0,13.4,1505.4,324.3,-0.7,1.9,2469.839,13.34,0.058,244.7
2019-07-17T14:04:44,42.805,6.029,-0.029,-0.011,0.0,105.0,110.0,100.0,13.4,1505.4,324.6,-0.7,1.8,2469.812,13.34,0.031,249.2
2019-07-17T14:07:45,42.805,6.029,-0.016,0.0,-0.002,106.0,109.0,100.0,13.3,1505.4,323.7,-0.8,1.8,2469.892,13.34,0.016,270.0
2019-07-17T14:10:46,42.805,6.029,-0.031,0.017,-0.004,103.0,108.0,102.0,13.4,1505.4,324.8,-0.7,1.8,2469.886,13.34,0.035,298.7
2019-07-17T14:13:47,42.805,6.029,-0.018,0.01,-0.006,106.0,110.0,101.0,13.4,1505.4,327.3,-0.7,1.9,2469.88,13.34,0.02,299.1
2019-07-17T14:16:48,42.805,6.029,-0.022,0.002,-0.038,105.0,109.0,101.0,13.4,1505.4,326.5,-0.7,1.8,2469.878,13.34,0.022,275.2
2019-07-17T14:19:49,42.805,6.029,-0.001,0.011,-0.008,104.0,110.0,101.0,13.4,1505.4,327.9,-0.7,1.8,2469.832,13.34,0.011,354.8
2019-07-17T14:22:50,42.805,6.029,0.0,0.0,-0.035,105.0,108.0,101.0,13.4,1505.4,326.7,-0.7,1.8,2469.848,13.34,0.0,0.0
2019-07-17T14:25:51,42.805,6.029,0.007,-0.011,0.0,102.0,112.0,101.0,13.4,1505.4,325.0,-0.7,1.8,2469.903,13.34,0.013,147.5
2019-07-17T14:28:52,42.805,6.029,-0.007,-0.001,0.037,105.0,111.0,101.0,13.4,1505.4,323.2,-0.7,1.8,2469.886,13.34,0.007,261.9
2019-07-17T14:31:53,42.805,6.029,-0.036,0.019,0.015,105.0,109.0,100.0,13.4,1505.4,324.8,-0.7,1.8,2469.922,13.34,0.04,297.8
2019-07-17T14:34:54,42.805,6.029,-0.001,0.008,-0.035,105.0,109.0,100.0,13.4,1505.4,323.3,-0.7,1.8,2469.853,13.34,0.008,352.9
2019-07-17T14:37:55,42.805,6.029,-0.008,0.018,0.038,105.0,109.0,100.0,13.4,1505.4,325.6,-0.7,1.8,2469.901,13.34,0.019,336.0
2019-07-17T14:40:56,42.805,6.029,-0.029,0.009,-0.001,103.0,109.0,100.0,13.3,1505.3,326.6,-0.7,1.8,2469.852,13.33,0.03,287.2
2019-07-17T14:43:57,42.805,6.029,-0.022,0.007,-0.007,103.0,110.0,100.0,13.3,1505.3,327.2,-0.7,1.8,2469.897,13.33,0.023,287.6
2019-07-17T14:46:58,42.805,6.029,-0.04,0.007,-0.028,104.0,109.0,100.0,13.4,1505.4,328.3,-0.7,1.8,2469.88,13.34,0.04,279.9
2019-07-17T14:49:59,42.805,6.029,-0.019,0.01,-0.01,104.0,109.0,101.0,13.4,1505.4,324.2,-0.7,1.8,2469.876,13.34,0.021,297.8
2019-07-17T14:53:00,42.805,6.029,-0.034,-0.004,-0.044,104.0,109.0,101.0,13.3,1505.4,325.3,-0.7,1.8,2469.898,13.34,0.034,263.3
2019-07-17T14:56:01,42.805,6.029,-0.012,-0.006,-0.003,105.0,110.0,102.0,13.4,1505.4,323.5,-0.7,1.8,2469.914,13.34,0.013,243.4
2019-07-17T14:59:02,42.805,6.029,-0.032,0.01,-0.025,104.0,110.0,102.0,13.4,1505.4,324.3,-0.7,1.9,2469.938,13.34,0.033,287.4
2019-07-17T15:02:03,42.805,6.029,-0.034,0.016,-0.003,105.0,109.0,101.0,13.4,1505.4,327.0,-0.7,1.8,2469.931,13.34,0.037,295.2
2019-07-17T15:05:04,42.805,6.029,-0.009,0.014,-0.002,105.0,110.0,100.0,13.4,1505.4,327.1,-0.7,1.8,2469.889,13.34,0.016,327.3
2019-07-17T15:08:05,42.805,6.029,-0.028,0.016,-0.025,105.0,111.0,100.0,13.4,1505.4,328.4,-0.7,1.8,2469.889,13.34,0.032,299.7
2019-07-17T15:11:06,42.805,6.029,-0.013,0.024,-0.03,104.0,110.0,99.0,13.4,1505.4,326.0,-0.7,1.8,2469.907,13.34,0.027,331.6
2019-07-17T15:14:07,42.805,6.029,-0.024,0.001,-0.019,104.0,110.0,100.0,13.4,1505.4,325.8,-0.8,1.8,2469.936,13.34,0.024,272.4
2019-07-17T15:17:08,42.805,6.029,-0.013,-0.002,0.013,106.0,109.0,100.0,13.4,1505.4,326.3,-0.7,1.9,2469.897,13.34,0.013,261.3
2019-07-17T15:20:09,42.805,6.029,-0.03,0.002,-0.002,104.0,110.0,100.0,13.4,1505.4,325.0,-0.7,1.8,2469.92,13.34,0.03,273.8
2019-07-17T15:23:10,42.805,6.029,-0.034,0.017,-0.019,105.0,110.0,100.0,13.4,1505.4,328.1,-0.7,1.9,2469.895,13.34,0.038,296.6
2019-07-17T15:26:11,42.805,6.029,-0.023,0.025,-0.001,105.0,110.0,100.0,13.3,1505.4,324.2,-0.7,1.8,2469.901,13.34,0.033,317.4
2019-07-17T15:29:12,42.805,6.029,-0.014,0.032,-0.022,104.0,110.0,101.0,13.3,1505.4,325.2,-0.7,1.8,2469.894,13.34,0.034,336.4
2019-07-17T15:32:13,42.805,6.029,-0.017,0.029,-0.008,104.0,110.0,101.0,13.4,1505.4,327.9,-0.7,1.8,2469.922,13.34,0.033,329.6
2019-07-17T15:35:14,42.805,6.029,0.001,0.016,-0.03,106.0,109.0,102.0,13.4,1505.4,326.0,-0.7,1.9,2469.898,13.34,0.016,3.6
2019-07-17T15:38:15,42.805,6.029,-0.004,0.03,0.015,104.0,109.0,101.0,13.4,1505.3,325.2,-0.7,1.8,2469.879,13.33,0.03,352.4
2019-07-17T15:41:16,42.805,6.029,-0.029,0.005,-0.034,104.0,109.0,99.0,13.3,1505.3,323.0,-0.7,1.9,2469.88,13.33,0.029,279.8
2019-07-17T15:44:17,42.805,6.029,-0.008,0.024,-0.017,104.0,110.0,100.0,13.4,1505.3,324.7,-0.7,1.9,2469.912,13.33,0.025,341.6
2019-07-17T15:47:18,42.805,6.029,-0.05,0.021,-0.016,104.0,111.0,100.0,13.4,1505.3,325.2,-0.7,1.8,2469.943,13.33,0.054,292.8
2019-07-17T15:50:19,42.805,6.029,-0.014,0.022,0.01,108.0,110.0,101.0,13.4,1505.3,326.5,-0.7,1.8,2469.941,13.33,0.026,327.5
2019-07-17T15:53:20,42.805,6.029,-0.02,0.02,-0.019,104.0,110.0,100.0,13.4,1505.4,324.7,-0.7,1.9,2469.959,13.34,0.028,315.0
2019-07-17T15:56:21,42.805,6.029,-0.039,0.005,-0.013,103.0,110.0,102.0,13.4,1505.4,328.1,-0.8,1.8,2469.97,13.34,0.039,277.3
2019-07-17T15:59:22,42.805,6.029,-0.002,-0.002,-0.015,102.0,109.0,100.0,13.3,1505.4,323.5,-0.7,1.8,2469.997,13.34,0.002,225.0
2019-07-17T16:02:23,42.805,6.029,-0.021,0.019,-0.01,105.0,109.0,100.0,13.3,1505.4,324.9,-0.7,1.8,2469.926,13.34,0.028,312.1
2019-07-17T16:05:24,42.805,6.029,-0.014,0.027,-0.011,103.0,109.0,99.0,13.4,1505.4,328.6,-0.7,1.9,2469.941,13.34,0.03,332.6
2019-07-17T16:08:25,42.805,6.029,-0.004,0.021,-0.031,102.0,109.0,99.0,13.4,1505.3,323.2,-0.7,1.8,2469.923,13.33,0.021,349.2
2019-07-17T16:11:26,42.805,6.029,-0.034,0.006,-0.018,103.0,110.0,101.0,13.4,1505.4,325.3,-0.7,1.8,2469.952,13.34,0.034,280.0
2019-07-17T16:14:27,42.805,6.029,-0.033,0.007,-0.03,104.0,109.0,101.0,13.4,1505.3,326.6,-0.7,1.8,2469.956,13.33,0.033,282.0
2019-07-17T16:17:28,42.805,6.029,-0.032,0.023,0.002,105.0,111.0,100.0,13.4,1505.3,327.3,-0.7,1.8,2470.001,13.33,0.039,305.7
2019-07-17T16:20:29,42.805,6.029,-0.039,0.007,-0.01,104.0,108.0,101.0,13.4,1505.3,324.8,-0.7,1.8,2469.953,13.33,0.039,280.2
2019-07-17T16:23:30,42.805,6.029,-0.02,0.002,-0.005,105.0,110.0,99.0,13.4,1505.3,325.3,-0.7,1.8,2469.975,13.33,0.02,275.7
2019-07-17T16:26:31,42.805,6.029,-0.008,0.016,-0.02,104.0,109.0,99.0,13.4,1505.3,323.8,-0.7,1.8,2469.937,13.33,0.017,333.4
2019-07-17T16:29:32,42.805,6.029,-0.014,0.006,0.009,104.0,110.0,100.0,13.4,1505.3,324.8,-0.7,1.9,2469.986,13.33,0.015,293.2
2019-07-17T16:32:33,42.805,6.029,-0.004,0.025,-0.017,104.0,109.0,101.0,13.4,1505.3,327.3,-0.7,1.9,2469.988,13.33,0.025,350.9
2019-07-17T16:35:34,42.805,6.029,0.0,0.019,-0.006,106.0,109.0,102.0,13.4,1505.4,324.0,-0.7,1.9,2469.95,13.34,0.019,0.0
2019-07-17T16:38:35,42.805,6.029,-0.023,0.008,0.0,105.0,110.0,100.0,13.4,1505.4,325.9,-0.7,1.8,2469.998,13.34,0.024,289.2
2019-07-17T16:41:36,42.805,6.029,-0.023,0.01,0.014,105.0,110.0,101.0,13.4,1505.4,326.4,-0.7,1.8,2469.932,13.34,0.025,293.5
2019-07-17T16:44:37,42.805,6.029,-0.02,0.023,-0.006,105.0,111.0,101.0,13.4,1505.4,326.2,-0.7,1.8,2469.976,13.34,0.03,319.0
2019-07-17T16:47:38,42.805,6.029,-0.026,0.027,-0.022,103.0,112.0,101.0,13.4,1505.4,328.5,-0.7,1.8,2469.989,13.34,0.037,316.1
2019-07-17T16:50:39,42.805,6.029,-0.028,0.006,-0.013,104.0,111.0,100.0,13.3,1505.4,325.8,-0.7,1.8,2470.037,13.34,0.028,282.1
2019-07-17T16:53:40,42.805,6.029,-0.039,0.022,-0.01,105.0,112.0,100.0,13.3,1505.4,327.6,-0.7,1.8,2470.033,13.34,0.044,299.4
2019-07-17T16:56:41,42.805,6.029,-0.017,-0.007,-0.014,108.0,112.0,101.0,13.4,1505.4,322.9,-0.8,1.9,2470.007,13.34,0.018,247.6
2019-07-17T16:59:42,42.805,6.029,-0.051,0.038,-0.011,105.0,113.0,99.0,13.3,1505.4,326.9,-0.7,1.8,2470.056,13.34,0.063,306.7
2019-07-17T17:02:43,42.805,6.029,-0.043,0.0,-0.025,106.0,110.0,101.0,13.3,1505.4,326.2,-0.7,1.8,2470.03,13.34,0.043,270.0
2019-07-17T17:05:44,42.805,6.029,-0.033,0.015,-0.016,103.0,111.0,99.0,13.4,1505.4,327.4,-0.7,1.8,2470.011,13.34,0.036,294.4
2019-07-17T17:08:45,42.805,6.029,-0.045,0.015,-0.024,108.0,111.0,101.0,13.4,1505.3,326.7,-0.7,1.9,2469.989,13.33,0.047,288.4
2019-07-17T17:11:46,42.805,6.029,-0.022,0.001,-0.004,103.0,113.0,100.0,13.3,1505.3,326.9,-0.7,1.9,2470.074,13.33,0.022,272.6
2019-07-17T17:14:47,42.805,6.029,-0.004,0.023,0.011,104.0,111.0,100.0,13.3,1505.3,323.5,-0.7,1.8,2470.02,13.33,0.023,350.1
2019-07-17T17:17:48,42.805,6.029,-0.036,0.022,-0.031,105.0,113.0,99.0,13.4,1505.4,326.3,-0.7,1.8,2470.073,13.34,0.042,301.4
2019-07-17T17:20:49,42.805,6.029,-0.037,0.027,-0.008,103.0,111.0,101.0,13.4,1505.4,323.7,-0.7,1.9,2470.077,13.34,0.045,306.1
2019-07-17T17:23:50,42.805,6.029,-0.032,0.013,-0.027,105.0,112.0,102.0,13.3,1505.4,326.4,-0.7,1.8,2470.059,13.34,0.034,292.1
2019-07-17T17:26:51,42.805,6.029,-0.036,-0.008,-0.031,103.0,112.0,101.0,13.4,1505.4,323.3,-0.7,1.8,2470.031,13.34,0.036,257.5
2019-07-17T17:29:52,42.805,6.029,-0.031,0.015,-0.007,105.0,112.0,100.0,13.4,1505.4,326.8,-0.7,1.9,2470.027,13.34,0.034,295.8
2019-07-17T17:32:53,42.805,6.029,-0.03,0.0,-0.023,104.0,112.0,100.0,13.4,1505.4,326.3,-0.7,1.8,2470.05,13.34,0.03,270.0
2019-07-17T17:35:54,42.805,6.029,-0.033,0.012,0.0,104.0,112.0,101.0,13.3,1505.4,326.6,-0.7,1.9,2470.043,13.34,0.035,290.0
2019-07-17T17:38:55,42.805,6.029,-0.047,0.0,0.009,104.0,110.0,101.0,13.4,1505.3,326.5,-0.7,1.8,2470.056,13.33,0.047,270.0
2019-07-17T17:41:56,42.805,6.029,-0.018,0.0,-0.024,103.0,112.0,100.0,13.4,1505.3,323.3,-0.7,1.8,2470.04,13.33,0.018,270.0
2019-07-17T17:44:57,42.805,6.029,0.0,0.019,-0.025,104.0,112.0,100.0,13.4,1505.3,327.3,-0.7,1.8,2470.02,13.33,0.019,0.0
2019-07-17T17:47:58,42.805,6.029,-0.025,0.01,-0.002,105.0,110.0,101.0,13.4,1505.3,324.2,-0.7,1.8,2470.062,13.33,0.026,291.8
2019-07-17T17:50:59,42.805,6.029,-0.014,0.004,-0.014,104.0,113.0,100.0,13.4,1505.3,324.6,-0.7,1.9,2470.074,13.33,0.014,285.9
2019-07-17T17:54:00,42.805,6.029,-0.024,0.021,0.019,104.0,110.0,101.0,13.3,1505.3,325.8,-0.7,1.8,2470.098,13.33,0.031,311.2
2019-07-17T17:57:01,42.805,6.029,-0.023,0.014,-0.005,103.0,113.0,100.0,13.4,1505.4,324.5,-0.7,1.8,2470.113,13.34,0.026,301.3
2019-07-17T18:00:02,42.805,6.029,-0.023,0.012,0.011,103.0,111.0,100.0,13.4,1505.4,325.1,-0.7,1.9,2470.119,13.34,0.025,297.6
2019-07-17T18:03:03,42.805,6.029,-0.013,0.006,-0.014,103.0,111.0,101.0,13.4,1505.4,323.5,-0.7,1.8,2470.072,13.34,0.014,294.8
2019-07-17T18:06:04,42.805,6.029,-0.051,0.007,-0.034,102.0,111.0,100.0,13.4,1505.3,326.4,-0.7,1.8,2470.103,13.33,0.051,277.8
2019-07-17T18:09:05,42.805,6.029,-0.035,0.003,-0.03,103.0,112.0,99.0,13.4,1505.3,325.9,-0.7,1.8,2470.082,13.33,0.035,274.9
2019-07-17T18:12:06,42.805,6.029,-0.035,0.016,-0.028,104.0,111.0,100.0,13.4,1505.3,323.5,-0.7,1.8,2470.111,13.33,0.038,294.6
2019-07-17T18:15:07,42.805,6.029,-0.033,0.0,0.003,102.0,111.0,99.0,13.3,1505.3,326.3,-0.7,1.8,2470.11,13.33,0.033,270.0
2019-07-17T18:18:08,42.805,6.029,-0.025,0.005,-0.021,103.0,109.0,100.0,13.4,1505.3,326.6,-0.7,1.9,2470.096,13.33,0.025,281.3
2019-07-17T18:21:09,42.805,6.029,-0.044,-0.01,-0.01,105.0,111.0,101.0,13.4,1505.4,327.9,-0.7,1.9,2470.121,13.34,0.045,257.2
2019-07-17T18:24:10,42.805,6.029,-0.038,0.025,-0.003,105.0,112.0,99.0,13.4,1505.4,324.9,-0.8,1.9,2470.083,13.34,0.045,303.3
2019-07-17T18:27:11,42.805,6.029,-0.016,0.025,-0.016,104.0,111.0,101.0,13.4,1505.4,327.5,-0.7,1.8,2470.13,13.34,0.029,327.4
2019-07-17T18:30:12,42.805,6.029,-0.018,0.026,0.006,104.0,111.0,102.0,13.4,1505.4,327.5,-0.7,1.8,2470.13,13.34,0.031,325.3
2019-07-17T18:33:13,42.805,6.029,-0.019,0.019,-0.014,103.0,110.0,100.0,13.4,1505.3,325.9,-0.7,1.8,2470.128,13.33,0.026,315.0
2019-07-17T18:36:14,42.805,6.029,-0.017,0.0,-0.028,106.0,110.0,101.0,13.3,1505.4,327.7,-0.7,1.8,2470.07,13.34,0.017,270.0
2019-07-17T18:39:15,42.805,6.029,-0.017,0.007,-0.002,104.0,112.0,100.0,13.4,1505.4,324.7,-0.7,1.8,2470.11,13.34,0.018,292.4
2019-07-17T18:42:16,42.805,6.029,-0.022,0.0,-0.009,105.0,113.0,100.0,13.4,1505.3,323.2,-0.7,1.9,2470.137,13.33,0.022,270.0
2019-07-17T18:45:17,42.805,6.029,-0.016,0.026,0.006,108.0,110.0,100.0,13.3,1505.3,326.7,-0.7,1.8,2470.111,13.33,0.03,328.4
2019-07-17T18:48:18,42.805,6.029,-0.032,-0.013,-0.01,104.0,113.0,101.0,13.4,1505.3,327.5,-0.7,1.9,2470.094,13.33,0.034,247.9
2019-07-17T18:51:19,42.805,6.029,-0.034,0.003,0.001,103.0,112.0,101.0,13.4,1505.3,326.8,-0.7,1.8,2470.12,13.33,0.034,275.0
2019-07-17T18:54:20,42.805,6.029,-0.028,0.001,-0.015,103.0,110.0,101.0,13.4,1505.3,324.9,-0.7,1.8,2470.142,13.33,0.028,272.0
2019-07-17T18:57:21,42.805,6.029,-0.028,0.018,-0.013,102.0,112.0,100.0,13.4,1505.3,322.7,-0.7,1.8,2470.14,13.33,0.033,302.7
2019-07-17T19:00:22,42.805,6.029,-0.014,0.015,-0.007,104.0,111.0,100.0,13.4,1505.3,326.0,-0.7,1.8,2470.147,13.33,0.02,317.0
2019-07-17T19:03:23,42.805,6.029,-0.028,0.023,-0.019,102.0,110.0,100.0,13.4,1505.3,324.9,-0.7,1.8,2470.159,13.33,0.036,309.4
2019-07-17T19:06:24,42.805,6.029,-0.011,0.013,-0.001,104.0,111.0,100.0,13.4,1505.3,323.1,-0.7,1.8,2470.147,13.33,0.017,319.8
2019-07-17T19:09:25,42.805,6.029,-0.034,-0.001,-0.013,103.0,110.0,100.0,13.4,1505.4,323.8,-0.7,1.8,2470.138,13.34,0.034,268.3
2019-07-17T19:12:26,42.805,6.029,-0.02,0.021,0.005,104.0,111.0,99.0,13.4,1505.4,325.0,-0.7,1.9,2470.123,13.34,0.028,316.4
2019-07-17T19:15:27,42.805,6.029,-0.009,0.0,0.008,103.0,109.0,101.0,13.4,1505.4,323.6,-0.7,1.8,2470.111,13.34,0.009,270.0
2019-07-17T19:18:28,42.805,6.029,-0.015,0.014,-0.02,103.0,110.0,99.0,13.4,1505.3,328.6,-0.7,1.9,2470.174,13.33,0.02,313.0
2019-07-17T19:21:29,42.805,6.029,-0.006,0.008,0.015,105.0,111.0,101.0,13.4,1505.4,326.9,-0.7,1.8,2470.159,13.34,0.01,323.1
2019-07-17T19:24:30,42.805,6.029,-0.04,0.018,-0.031,104.0,111.0,102.0,13.3,1505.4,324.8,-0.7,1.9,2470.134,13.34,0.043,294.2
2019-07-17T19:27:31,42.805,6.029,-0.021,0.005,-0.007,103.0,111.0,102.0,13.4,1505.4,326.2,-0.7,1.8,2470.167,13.34,0.021,283.4
2019-07-17T19:30:32,42.805,6.029,-0.024,-0.008,0.013,105.0,111.0,100.0,13.4,1505.4,326.2,-0.7,1.9,2470.143,13.34,0.025,251.6
2019-07-17T19:33:33,42.805,6.029,-0.021,0.009,0.002,105.0,111.0,100.0,13.3,1505.4,323.6,-0.7,1.8,2470.154,13.34,0.022,293.2
2019-07-17T19:36:34,42.805,6.029,-0.027,0.024,0.001,103.0,110.0,101.0,13.3,1505.4,323.7,-0.7,1.8,2470.137,13.34,0.036,311.6
2019-07-17T19:39:35,42.805,6.029,-0.038,0.007,0.004,104.0,110.0,100.0,13.3,1505.4,326.5,-0.7,1.8,2470.174,13.34,0.038,280.4
2019-07-17T19:42:36,42.805,6.029,-0.04,0.023,-0.041,104.0,110.0,101.0,13.3,1505.3,327.8,-0.7,1.8,2470.141,13.33,0.046,299.9
2019-07-17T19:45:37,42.805,6.029,-0.025,-0.012,-0.055,104.0,111.0,99.0,13.4,1505.4,327.7,-0.7,1.9,2470.174,13.34,0.027,244.4
2019-07-17T19:48:38,42.805,6.029,-0.026,0.024,0.0,105.0,112.0,102.0,13.4,1505.4,326.9,-0.7,1.8,2470.096,13.34,0.035,312.7
2019-07-17T19:51:39,42.805,6.029,-0.024,-0.007,-0.034,105.0,112.0,100.0,13.4,1505.4,327.2,-0.7,1.9,2470.19,13.34,0.025,253.7
2019-07-17T19:54:40,42.805,6.029,-0.013,0.004,0.009,105.0,111.0,103.0,13.4,1505.4,327.8,-0.7,1.9,2470.127,13.34,0.013,287.1
2019-07-17T19:57:41,42.805,6.029,-0.023,-0.018,-0.017,105.0,111.0,101.0,13.4,1505.4,326.7,-0.7,1.8,2470.155,13.34,0.029,232.0
2019-07-17T20:00:42,42.805,6.029,-0.046,0.013,-0.013,104.0,113.0,101.0,13.4,1505.4,328.4,-0.7,1.8,2470.201,13.34,0.047,285.8
2019-07-17T20:03:43,42.805,6.029,-0.028,0.017,-0.006,105.0,111.0,102.0,13.4,1505.4,326.4,-0.7,1.9,2470.141,13.34,0.032,301.3
2019-07-17T20:06:44,42.805,6.029,-0.034,0.009,-0.026,106.0,112.0,101.0,13.4,1505.4,326.4,-0.7,1.9,2470.167,13.34,0.035,284.8
2019-07-17T20:09:45,42.805,6.029,-0.041,0.029,-0.01,103.0,112.0,101.0,13.3,1505.4,326.2,-0.7,1.8,2470.143,13.34,0.05,305.3
2019-07-17T20:12:46,42.805,6.029,0.007,0.024,0.001,104.0,112.0,101.0,13.3,1505.4,328.3,-0.7,1.9,2470.174,13.34,0.025,16.3
2019-07-17T20:15:47,42.805,6.029,-0.04,-0.012,-0.011,105.0,110.0,100.0,13.3,1505.4,324.8,-0.7,1.8,2470.188,13.34,0.041,253.3
2019-07-17T20:18:48,42.805,6.029,-0.019,0.006,0.018,104.0,112.0,101.0,13.3,1505.4,325.1,-0.8,1.8,2470.166,13.34,0.019,287.5
2019-07-17T20:21:49,42.805,6.029,-0.032,0.006,-0.007,104.0,112.0,101.0,13.4,1505.4,324.3,-0.7,1.8,2470.144,13.34,0.032,280.6
2019-07-17T20:24:50,42.805,6.029,-0.028,0.016,0.0,105.0,111.0,99.0,13.4,1505.4,328.3,-0.8,1.9,2470.149,13.34,0.032,299.7
2019-07-17T20:27:51,42.805,6.029,-0.035,0.006,-0.013,105.0,111.0,101.0,13.3,1505.4,326.3,-0.7,1.8,2470.175,13.34,0.035,279.7
2019-07-17T20:30:52,42.805,6.029,-0.014,0.032,-0.028,107.0,112.0,100.0,13.4,1505.4,328.0,-0.7,1.8,2470.203,13.34,0.034,336.4
2019-07-17T20:33:53,42.805,6.029,-0.029,0.024,-0.003,106.0,112.0,100.0,13.3,1505.4,325.1,-0.7,1.8,2470.198,13.34,0.037,309.6
2019-07-17T20:36:54,42.805,6.029,-0.028,0.016,-0.034,103.0,113.0,101.0,13.3,1505.4,325.9,-0.7,1.8,2470.176,13.34,0.032,299.7
2019-07-17T20:39:55,42.805,6.029,-0.035,0.019,-0.001,106.0,111.0,101.0,13.4,1505.4,324.5,-0.7,1.8,2470.154,13.34,0.039,298.5
2019-07-17T20:42:56,42.805,6.029,-0.041,0.008,-0.03,105.0,111.0,100.0,13.4,1505.4,323.2,-0.7,1.8,2470.156,13.34,0.041,281.0
2019-07-17T20:45:57,42.805,6.029,-0.004,0.008,-0.027,105.0,111.0,101.0,13.3,1505.4,328.4,-0.7,1.8,2470.15,13.34,0.008,333.4
2019-07-17T20:48:58,42.805,6.029,-0.025,0.019,-0.004,105.0,111.0,100.0,13.4,1505.4,325.9,-0.7,1.8,2470.152,13.34,0.031,307.2
2019-07-17T20:51:59,42.805,6.029,-0.046,0.006,0.005,103.0,112.0,100.0,13.4,1505.4,327.7,-0.7,1.8,2470.21,13.34,0.046,277.4
2019-07-17T20:55:00,42.805,6.029,-0.058,0.023,-0.026,103.0,110.0,99.0,13.4,1505.3,324.2,-0.7,1.8,2470.177,13.33,0.062,291.6
2019-07-17T20:58:01,42.805,6.029,-0.041,0.006,-0.014,103.0,111.0,101.0,13.3,1505.3,327.4,-0.7,1.8,2470.184,13.33,0.041,278.3
2019-07-17T21:01:02,42.805,6.029,-0.044,0.008,-0.032,104.0,113.0,100.0,13.4,1505.3,325.0,-0.7,1.8,2470.213,13.33,0.044,280.3
2019-07-17T21:04:03,42.805,6.029,-0.018,0.003,-0.003,103.0,112.0,99.0,13.3,1505.3,325.2,-0.7,1.9,2470.214,13.33,0.018,279.5
2019-07-17T21:07:04,42.805,6.029,-0.011,0.006,-0.001,108.0,111.0,100.0,13.4,1505.3,323.4,-0.7,1.9,2470.19,13.33,0.012,298.6
2019-07-17T21:10:05,42.805,6.029,-0.021,0.001,-0.023,104.0,112.0,100.0,13.4,1505.3,324.4,-0.7,1.8,2470.138,13.33,0.021,272.7
2019-07-17T21:13:06,42.805,6.029,-0.03,0.018,0.005,104.0,112.0,100.0,13.4,1505.3,323.1,-0.7,1.8,2470.179,13.33,0.034,301.0
2019-07-17T21:16:07,42.805,6.029,-0.044,-0.003,-0.032,104.0,112.0,99.0,13.3,1505.3,325.7,-0.7,1.8,2470.171,13.33,0.044,266.1
2019-07-17T21:19:08,42.805,6.029,-0.019,0.022,-0.014,105.0,111.0,101.0,13.4,1505.3,326.2,-0.7,1.8,2470.195,13.33,0.029,319.2
2019-07-17T21:22:09,42.805,6.029,-0.032,0.0,0.0,103.0,111.0,102.0,13.4,1505.3,324.7,-0.8,1.8,2470.161,13.33,0.032,270.0
2019-07-17T21:25:10,42.805,6.029,-0.012,0.011,0.001,106.0,112.0,101.0,13.4,1505.3,325.0,-0.7,1.8,2470.163,13.33,0.016,312.5
2019-07-17T21:28:11,42.805,6.029,-0.036,0.015,-0.018,105.0,111.0,101.0,13.4,1505.3,323.7,-0.7,1.8,2470.111,13.33,0.039,292.6
2019-07-17T21:31:12,42.805,6.029,-0.025,0.012,-0.007,104.0,114.0,99.0,13.3,1505.3,327.2,-0.7,1.8,2470.164,13.33,0.027,295.6